RH
48 28 22 17 15 18 24 28 28 26 24 22 20 19 18 17 18 18 19 26 30 17 17 21 14 17 16 20 20 20 17 24 27 25 26 24 26 24 22 23 23 21 21 22 25
31 26 21 18 19 24 28 28 27 24 21 20 19 18 18 17 18 15 20 18 18 16 17 13 11 12 16 20 19 20 18 24 21 20 24 24 22 25 24 24 24 24 23 24 28
28 26 21 20 26 27 28 28 24 22 22 20 19 18 16 15 15 14 16 16 18 18 16 14 13 13 20 20 22 23 24 24 23 21 20 23 22 21 23 27 22 24 24 25 26
29 25 22 29 27 28 28 25 23 23 21 18 17 17 16 21 18 15 16 16 15 15 15 12 11 15 20 22 20 24 24 22 25 23 22 24 21 24 22 22 20 20 23 25 25
26 24 29 28 29 28 25 23 23 22 20 18 17 16 15 13 16 17 16 16 15 17 15 11 11 16 18 20 18 23 24 22 23 23 21 22 24 22 23 20 20 21 23 24 24
23 26 27 28 27 26 23 22 21 20 19 18 16 14 15 15 18 17 16 16 17 14 14 13 14 14 18 21 22 22 22 22 21 22 22 24 23 25 20 20 21 22 24 23 23
24 26 28 26 25 24 22 21 19 19 18 17 16 16 13 17 18 18 18 18 16 15 17 16 15 15 16 24 19 20 23 22 22 22 22 23 25 27 19 22 22 23 23 23 23
24 26 26 26 23 22 20 19 19 18 18 16 15 16 16 17 18 17 17 16 17 18 18 17 17 18 18 19 19 20 20 22 22 22 23 24 20 22 20 22 23 22 21 23 23
24 24 26 24 23 21 19 17 16 16 15 14 14 13 16 16 16 17 18 16 16 16 18 18 17 20 21 18 20 21 14 15 24 21 22 25 21 23 21 22 22 21 20 21 23
23 26 24 25 22 22 18 15 16 16 15 14 13 13 14 14 17 18 17 18 14 14 14 13 13 14 13 13 15 13 12 12 15 23 24 23 23 18 22 22 22 20 20 20 22
26 24 25 26 21 21 19 17 15 13 14 18 17 16 14 15 17 14 16 15 12 12 13 11 12 13 13 15 15 15 14 14 12 24 26 22 20 16 18 23 23 20 20 20 20
25 25 27 25 21 19 20 17 28 29 17 16 16 15 18 17 14 13 16 13 13 13 14 14 16 16 16 16 16 14 16 14 16 22 24 20 20 18 17 19 23 22 20 19 19
26 24 24 25 22 28 26 35 33 28 15 16 16 15 16 17 16 15 15 14 13 13 12 14 19 19 18 15 15 13 16 16 19 18 18 24 21 21 22 23 21 21 20 18 19
27 25 23 23 23 27 28 34 31 31 16 18 17 16 16 16 18 18 17 18 16 14 15 16 18 18 17 15 17 18 20 20 22 24 22 20 22 19 18 20 23 23 23 21 20
30 29 25 21 24 21 37 37 29 22 24 18 18 18 16 18 19 20 19 17 17 16 20 23 18 17 15 17 19 19 25 22 24 24 23 23 23 19 18 17 18 19 20 21 21
31 29 27 32 28 32 28 26 25 22 24 21 18 19 17 18 19 18 16 17 18 18 17 20 21 19 20 20 20 21 22 22 25 22 27 22 21 16 15 14 16 18 18 19 21
30 28 27 28 28 29 26 24 23 22 21 20 20 19 18 17 19 19 16 17 19 19 21 22 22 22 20 20 21 20 19 22 25 25 20 22 24 17 16 15 16 16 17 20 20
30 28 28 27 29 26 27 20 26 21 18 22 22 21 20 20 20 21 20 17 20 20 15 14 19 22 21 19 20 19 21 20 26 20 19 23 26 16 15 17 17 18 19 20 22
31 35 36 30 25 28 21 23 18 22 20 22 22 21 18 22 23 22 20 17 18 20 19 13 15 24 24 20 20 22 22 20 22 21 26 17 14 13 16 17 18 19 20 23 24
35 30 31 30 26 31 22 22 21 22 23 24 23 20 20 20 23 22 19 21 24 23 21 17 16 22 28 22 20 22 18 24 22 27 25 14 15 19 19 16 17 19 21 23 25
42 27 39 32 28 22 24 19 23 26 26 25 23 22 22 24 23 21 18 25 24 26 23 19 18 25 26 27 22 22 21 21 24 23 27 22 16 13 14 15 16 17 17 19 24
43 31 39 31 27 23 23 20 36 28 30 30 29 25 23 23 24 22 21 21 24 24 23 19 20 18 17 22 21 22 19 18 22 25 25 28 23 15 15 16 17 17 17 18 21
35 29 39 47 28 27 25 28 30 30 29 31 32 29 26 26 28 24 27 32 30 26 24 23 21 20 25 26 22 23 21 19 20 22 24 25 17 15 15 17 17 19 19 20 23
44 36 37 36 33 28 22 25 26 36 32 30 30 31 32 30 28 28 31 37 30 30 42 31 25 24 20 24 20 25 24 22 22 23 21 22 19 16 15 14 14 15 19 20 24
43 35 42 35 34 31 26 26 30 32 36 32 33 32 29 28 30 34 28 38 37 44 33 30 33 25 22 20 22 22 21 24 25 20 22 16 17 16 15 15 14 17 20 22 24
50 45 43 36 36 38 38 28 30 25 32 33 35 26 29 30 25 24 31 31 30 40 33 32 32 31 27 23 27 30 26 24 24 22 21 21 23 16 14 14 18 18 20 25 27
52 54 49 43 39 38 31 30 30 27 26 26 30 29 34 31 24 31 28 31 28 33 34 36 34 31 30 26 26 30 25 24 24 23 22 25 18 16 19 18 19 20 22 23 27
Wind_Speed
7 9 9 10 11 11 9 9 7 7 5 8 8 7 7 8 7 8 11 14 9 4 3 6 1 2 6 5 6 3 3 5 5 8 8 12 7 4 1 5 8 5 2 4 22
8 9 10 11 12 11 10 7 6 5 7 7 7 7 9 8 5 15 17 10 5 6 5 6 5 4 4 4 4 4 1 4 4 7 8 13 6 9 6 7 9 8 4 13 20
8 8 10 12 12 10 9 4 5 5 6 6 6 6 9 6 5 9 19 9 5 6 5 4 3 2 5 5 7 6 3 8 4 2 7 11 6 8 7 8 10 11 11 18 18
7 8 10 12 10 10 6 3 5 5 6 5 5 6 7 3 1 12 17 8 9 7 6 6 4 1 3 4 3 6 5 3 6 4 7 9 6 6 12 2 6 5 18 20 18
7 9 10 10 9 5 4 4 4 5 7 6 4 4 5 4 6 15 12 14 8 4 5 4 2 4 5 6 8 9 6 7 9 5 5 5 7 7 10 7 2 12 18 18 16
9 9 9 10 7 2 4 3 4 5 8 8 4 2 7 1 3 12 12 10 9 7 12 4 6 11 9 5 5 7 9 10 6 6 5 5 5 2 7 9 9 14 15 16 16
9 10 9 6 4 2 3 3 5 5 6 5 6 6 9 6 3 5 8 13 15 4 5 7 5 2 7 7 9 12 8 6 6 6 2 4 11 13 5 11 13 15 14 14 16
10 9 5 4 3 2 3 4 4 4 5 5 4 5 4 1 2 4 3 7 9 11 14 12 13 9 4 13 6 5 4 6 11 8 5 4 8 9 10 14 15 16 14 14 16
9 6 4 3 3 3 2 3 4 2 5 6 3 6 5 0 1 5 5 5 3 3 5 4 4 5 5 4 5 5 5 2 8 9 3 9 9 9 10 12 13 14 15 14 14
7 5 3 3 3 4 1 1 5 3 4 1 1 3 4 2 3 5 4 5 4 3 3 2 2 4 3 4 5 8 6 2 5 6 8 11 17 13 13 14 14 14 14 15 15
6 4 3 4 5 5 3 6 5 4 9 5 5 2 3 1 2 1 3 6 6 6 4 1 6 5 5 5 5 5 7 8 4 5 6 12 16 13 10 14 14 15 14 15 16
5 3 2 4 5 6 4 4 3 4 3 3 2 1 2 3 4 4 8 5 4 4 4 6 4 4 2 2 4 5 8 5 2 1 4 13 18 12 6 14 15 15 15 15 14
3 1 2 6 4 6 7 4 2 4 4 4 2 2 2 4 2 5 9 3 4 2 4 5 6 3 1 2 6 4 6 7 7 12 10 13 6 4 2 3 8 13 14 14 15
2 1 3 5 2 2 3 4 3 2 4 6 3 3 2 2 4 3 6 3 4 3 3 3 4 2 2 2 4 7 3 4 9 8 4 4 5 6 5 4 9 10 13 15 14
2 2 2 6 2 1 1 4 1 1 4 2 4 2 0 4 3 3 2 4 4 1 3 4 3 4 5 1 2 4 3 6 6 7 7 4 4 6 3 3 5 8 10 11 12
3 3 1 3 3 1 2 2 1 4 1 3 0 1 4 2 1 3 2 1 2 3 1 3 1 2 2 2 4 4 5 7 4 4 5 4 4 2 0 1 4 5 5 7 10
3 5 1 2 2 3 2 3 4 5 2 3 1 2 3 2 2 2 2 4 4 5 8 5 5 4 2 4 5 7 10 2 3 3 4 3 3 8 3 5 5 5 4 6 8
1 3 4 4 3 1 2 5 5 3 1 1 1 3 5 1 3 2 4 8 4 5 5 5 5 5 2 2 4 3 5 3 3 4 6 4 6 1 4 3 5 6 6 6 9
2 1 1 3 3 2 4 6 3 1 2 1 3 5 5 4 3 4 5 6 1 2 4 3 3 3 3 2 3 3 2 3 4 1 4 4 6 10 7 7 10 10 9 10 11
3 3 3 3 1 2 4 7 2 1 1 2 4 2 5 3 4 4 5 3 4 1 1 3 4 2 3 2 1 4 1 3 3 3 5 6 8 8 10 7 7 8 11 10 11
3 4 1 3 2 4 8 9 2 2 4 5 4 4 6 3 8 5 3 4 3 4 2 3 3 4 2 7 5 4 3 3 2 2 3 5 5 5 7 4 6 6 6 8 12
3 4 1 6 5 3 9 5 2 4 4 5 4 7 7 3 5 5 5 1 2 5 3 2 4 6 2 3 2 3 4 7 3 4 4 3 8 4 5 3 5 8 7 6 9
3 3 1 2 6 9 5 4 4 6 6 5 5 7 2 4 5 7 3 2 3 4 2 3 5 4 5 3 2 5 7 8 3 2 11 6 6 3 3 7 9 11 9 7 9
3 3 3 4 3 8 9 12 9 4 5 5 3 3 5 6 8 3 5 3 4 3 1 1 4 9 9 4 2 5 9 13 11 6 7 13 18 21 15 12 13 9 8 8 10
3 2 4 3 8 11 7 2 8 6 7 7 4 14 9 5 6 7 8 5 5 6 4 3 6 7 13 13 10 11 12 15 20 20 9 14 14 20 19 18 16 6 5 7 11
4 4 1 4 2 7 10 11 14 11 7 7 11 5 14 10 8 2 6 7 6 9 8 5 3 2 6 5 6 13 16 19 21 21 21 22 25 23 20 9 9 9 8 10 12
1 3 3 1 3 6 10 10 7 6 10 9 9 11 10 15 6 1 3 3 1 5 11 7 4 3 5 0 8 12 18 21 11 10 20 14 13 10 8 11 12 11 9 11 12
Wind_Direction
141 135 133 130 132 127 121 110 96 79 33 11 3 342 343 355 22 48 36 326 328 359 296 292 222 145 59 62 27 304 191 144 140 175 136 155 154 166 47 136 201 171 290 74 152
130 130 133 136 128 121 116 99 82 52 9 1 349 333 336 333 336 50 351 342 12 18 317 325 353 2 68 48 17 344 127 89 31 77 160 169 184 165 184 187 206 193 153 147 155
124 136 141 131 121 124 110 93 70 18 7 354 330 331 334 307 278 23 351 5 344 340 325 311 301 27 72 49 10 13 61 129 90 54 151 159 184 171 217 216 222 207 170 160 168
144 147 142 127 128 123 111 77 39 11 18 359 328 315 334 261 6 351 345 338 345 336 293 280 267 63 72 60 44 107 65 83 119 114 134 163 172 214 226 37 353 184 164 169 180
152 141 135 127 127 116 110 60 31 22 29 25 354 320 299 92 32 350 351 4 359 312 319 288 3 106 106 103 78 92 116 100 111 130 152 149 199 239 235 218 193 143 163 178 187
145 142 136 129 117 111 73 52 48 24 32 38 2 335 263 94 2 12 24 29 23 67 55 58 81 94 89 71 26 117 124 122 142 142 157 223 233 265 212 161 176 164 180 188 194
147 140 135 123 107 101 63 34 9 3 30 26 0 359 56 76 9 354 16 40 43 28 85 61 76 280 130 109 120 136 123 152 175 178 180 270 245 228 220 172 182 187 191 196 198
144 138 134 115 99 80 31 7 11 30 25 1 5 295 67 91 9 31 1 45 48 69 85 85 90 76 69 119 141 200 204 222 149 172 133 224 299 171 151 184 191 195 199 201 204
145 137 124 104 73 23 2 44 27 47 36 22 308 295 116 129 299 339 347 335 1 52 74 93 77 98 155 207 179 195 317 287 157 197 153 218 290 134 172 198 202 205 210 207 212
140 136 117 63 27 0 346 157 349 44 353 331 325 215 152 56 330 324 311 314 293 248 216 229 183 160 169 280 355 343 314 330 300 153 220 246 260 261 192 202 222 216 216 217 216
144 138 97 29 17 11 344 286 212 168 47 29 2 350 76 41 327 309 329 298 253 251 282 263 255 43 55 22 348 317 303 300 324 104 274 266 277 280 203 208 224 231 222 223 220
144 133 52 12 2 0 9 14 33 355 101 80 23 77 13 333 268 59 351 270 283 289 264 223 81 81 89 13 307 301 305 335 83 78 281 306 300 297 288 211 218 231 232 225 222
139 117 4 0 11 34 72 67 16 335 272 138 67 337 356 313 329 350 342 310 311 273 341 8 88 129 258 276 317 297 306 331 315 317 252 296 250 163 127 276 206 231 241 236 225
127 44 356 352 75 85 55 6 353 354 261 139 173 125 198 306 232 357 4 313 208 303 327 61 125 187 218 270 316 305 38 307 304 310 353 338 324 130 147 189 208 223 228 232 230
37 27 36 37 59 20 23 358 40 287 277 99 132 29 93 264 346 138 337 241 297 161 247 86 176 197 236 14 309 1 325 299 298 280 309 167 259 110 172 172 195 208 217 220 224
33 7 9 19 73 99 332 358 340 233 240 135 229 206 236 214 206 308 237 162 348 253 210 88 111 270 19 230 247 324 269 229 252 256 232 100 345 261 78 351 198 197 221 228 211
20 20 32 50 53 312 316 259 250 250 143 135 246 250 269 240 210 297 270 221 269 256 199 170 187 140 236 248 219 245 272 222 209 211 349 133 272 267 163 204 246 260 241 225 204
342 34 34 58 359 349 265 250 255 56 330 113 258 240 246 198 192 231 246 239 197 256 286 267 206 191 121 331 335 335 316 356 299 319 307 140 236 85 125 168 210 227 239 229 205
280 265 183 308 357 335 251 244 307 32 38 244 221 243 207 207 268 241 235 277 16 230 268 277 178 132 59 325 305 115 251 8 287 213 266 227 255 230 182 235 228 230 217 221 208
268 249 207 253 299 266 247 252 285 105 152 238 256 228 279 182 227 209 213 128 180 202 283 49 258 178 112 236 165 285 80 238 187 291 289 292 298 262 216 243 210 234 233 227 210
244 247 98 241 177 225 240 237 260 190 204 223 277 264 245 263 241 252 283 142 201 160 234 300 244 125 177 203 179 160 199 214 308 268 279 301 279 17 260 288 268 278 270 231 209
274 236 128 156 211 235 237 236 42 208 195 237 270 260 253 211 246 243 255 252 146 179 202 124 303 258 215 97 357 306 261 204 243 164 245 281 271 196 243 258 259 273 286 251 219
256 261 288 236 228 216 210 242 249 202 214 200 236 234 232 238 241 232 237 100 168 206 251 145 215 251 183 182 191 234 206 226 253 272 245 257 261 134 223 248 251 257 258 243 216
287 252 183 212 294 271 237 243 231 216 238 215 254 226 213 231 224 257 229 167 179 193 64 181 267 258 284 10 21 202 207 211 209 224 245 232 271 287 295 308 317 296 229 229 202
231 261 354 212 227 229 243 289 226 216 221 214 228 225 212 241 222 228 215 169 188 167 191 233 266 278 273 282 256 258 249 207 215 227 238 266 280 283 296 304 305 318 271 220 208
299 305 182 283 283 221 215 240 243 230 191 218 233 231 224 236 225 292 194 205 206 179 192 188 255 295 280 260 264 258 251 239 227 242 255 266 276 280 280 283 283 274 251 231 222
275 246 279 16 236 230 230 251 258 260 226 255 240 238 228 237 245 31 18 340 177 181 190 185 227 233 272 239 293 273 245 218 207 219 223 240 238 266 273 279 283 285 271 239 229